| time (UTC) | temp F | wind direction | speed MPH | gust MPH | rain 1hr in | rain 24hr in | rain mn in | humidity % | barometer mb |
| 20260906160531 | 73 | 100 | 2.0 | 7.0 | 0.00 | 0.01 | 0.01 | 79 | 1019.5 |
| 20260906160031 | 72 | 65 | 3.0 | 7.0 | 0.00 | 0.01 | 0.01 | 79 | 1019.5 |
| 20260906155531 | 72 | 96 | 2.0 | 7.0 | 0.00 | 0.01 | 0.01 | 79 | 1019.6 |
| 20260906155032 | 72 | 84 | 3.0 | 9.0 | 0.00 | 0.01 | 0.01 | 81 | 1019.5 |
| 20260906154531 | 72 | 72 | 4.0 | 9.0 | 0.00 | 0.01 | 0.01 | 79 | 1019.5 |
| 20260906154030 | 72 | 85 | 4.0 | 8.0 | 0.00 | 0.01 | 0.01 | 81 | 1019.5 |
| 20260906153529 | 72 | 72 | 1.0 | 7.0 | 0.00 | 0.01 | 0.01 | 82 | 1019.5 |
| 20260906153027 | 71 | 93 | 3.0 | 8.0 | 0.00 | 0.01 | 0.01 | 82 | 1019.6 |
| 20260906152526 | 71 | 61 | 4.0 | 8.0 | 0.00 | 0.01 | 0.01 | 81 | 1019.5 |
| 20260906152029 | 71 | 93 | 4.0 | 7.0 | 0.00 | 0.01 | 0.01 | 82 | 1019.5 |
| 20260906151531 | 71 | 77 | 3.0 | 6.0 | 0.00 | 0.01 | 0.01 | 83 | 1019.5 |
| 20260906151025 | 71 | 92 | 3.0 | 8.0 | 0.00 | 0.01 | 0.01 | 83 | 1019.5 |
| 20260906150525 | 71 | 58 | 4.0 | 7.0 | 0.00 | 0.01 | 0.01 | 81 | 1019.6 |
| 20260906150025 | 71 | 115 | 2.0 | 7.0 | 0.00 | 0.01 | 0.01 | 83 | 1019.7 |
| 20260906145522 | 70 | 143 | 2.0 | 7.0 | 0.00 | 0.01 | 0.01 | 84 | 1019.6 |
| 20260906145022 | 70 | 61 | 5.0 | 9.0 | 0.00 | 0.01 | 0.01 | 84 | 1019.4 |
| 20260906144521 | 70 | 68 | 2.0 | 9.0 | 0.00 | 0.01 | 0.01 | 85 | 1019.4 |
| 20260906144020 | 69 | 75 | 4.0 | 7.0 | 0.00 | 0.01 | 0.01 | 85 | 1019.3 |
| 20260906143521 | 69 | 86 | 1.0 | 7.0 | 0.00 | 0.01 | 0.01 | 87 | 1019.3 |
| 20260906143018 | 69 | 131 | 2.0 | 7.0 | 0.00 | 0.01 | 0.01 | 88 | 1019.3 |
| 20260906142518 | 69 | 86 | 3.0 | 6.0 | 0.00 | 0.01 | 0.01 | 88 | 1019.3 |
| 20260906142017 | 68 | 64 | 1.0 | 5.0 | 0.00 | 0.01 | 0.01 | 90 | 1019.3 |
| 20260906141521 | 68 | 91 | 2.0 | 4.0 | 0.00 | 0.01 | 0.01 | 91 | 1019.4 |
| 20260906141013 | 67 | 77 | 2.0 | 4.0 | 0.00 | 0.01 | 0.01 | 91 | 1019.5 |
| 20260906140513 | 67 | 85 | 1.0 | 5.0 | 0.00 | 0.01 | 0.01 | 91 | 1019.5 |
| 20260906140024 | 67 | 98 | 0.0 | 4.0 | 0.00 | 0.01 | 0.01 | 92 | 1019.5 |
| 20260906135515 | 67 | 84 | 1.0 | 4.0 | 0.00 | 0.01 | 0.01 | 93 | 1019.5 |
| 20260906135011 | 66 | 68 | 1.0 | 3.0 | 0.00 | 0.01 | 0.01 | 94 | 1019.6 |
| 20260906134510 | 65 | 60 | 1.0 | 5.0 | 0.00 | 0.01 | 0.01 | 94 | 1019.7 |
| 20260906134007 | 65 | 60 | 2.0 | 5.0 | 0.00 | 0.01 | 0.01 | 94 | 1019.6 |
| 20260906133506 | 65 | 72 | 2.0 | 6.0 | 0.00 | 0.01 | 0.01 | 95 | 1019.6 |
| 20260906133005 | 64 | 52 | 3.0 | 6.0 | 0.00 | 0.01 | 0.01 | 95 | 1019.5 |
| 20260906132503 | 64 | 45 | 1.0 | 5.0 | 0.00 | 0.01 | 0.01 | 96 | 1019.4 |
| 20260906132004 | 64 | 70 | 2.0 | 5.0 | 0.00 | 0.01 | 0.01 | 97 | 1019.4 |
| 20260906131502 | 64 | 58 | 1.0 | 3.0 | 0.00 | 0.01 | 0.01 | 98 | 1019.4 |
| 20260906131100 | 63 | 20 | 0.0 | 3.0 | 0.00 | 0.01 | 0.01 | 97 | 1019.4 |
| 20260906130559 | 62 | 68 | 1.0 | 3.0 | 0.00 | 0.01 | 0.01 | 97 | 1019.3 |
| 20260906130107 | 61 | 32 | 1.0 | 4.0 | 0.00 | 0.01 | 0.01 | 97 | 1019.3 |
| 20260906125602 | 61 | 38 | 1.0 | 4.0 | 0.00 | 0.01 | 0.01 | 97 | 1019.1 |
| 20260906125058 | 61 | 35 | 1.0 | 4.0 | 0.00 | 0.01 | 0.01 | 98 | 1019.2 |
| 20260906124556 | 61 | 19 | 1.0 | 4.0 | 0.00 | 0.01 | 0.01 | 98 | 1019.2 |
| 20260906124059 | 60 | 87 | 1.0 | 4.0 | 0.00 | 0.01 | 0.01 | 97 | 1019.0 |
| 20260906123558 | 60 | 65 | 1.0 | 4.0 | 0.00 | 0.01 | 0.01 | 97 | 1018.9 |
| 20260906123055 | 60 | 16 | 1.0 | 3.0 | 0.00 | 0.01 | 0.01 | 98 | 1018.9 |
| 20260906122555 | 59 | 34 | 1.0 | 3.0 | 0.00 | 0.01 | 0.01 | 98 | 1018.9 |
| 20260906122054 | 59 | 21 | 2.0 | 4.0 | 0.00 | 0.01 | 0.01 | 98 | 1018.9 |
| 20260906121557 | 59 | 355 | 2.0 | 4.0 | 0.00 | 0.01 | 0.01 | 98 | 1018.8 |
| 20260906121054 | 59 | 36 | 2.0 | 5.0 | 0.00 | 0.01 | 0.01 | 98 | 1018.8 |
| 20260906120552 | 59 | 21 | 2.0 | 6.0 | 0.00 | 0.01 | 0.01 | 98 | 1018.7 |
| 20260906120052 | 59 | 35 | 3.0 | 6.0 | 0.00 | 0.01 | 0.01 | 98 | 1018.7 |
| 20260906115552 | 58 | 48 | 3.0 | 5.0 | 0.00 | 0.01 | 0.01 | 98 | 1018.7 |
| 20260906115050 | 58 | 11 | 2.0 | 4.0 | 0.00 | 0.01 | 0.01 | 98 | 1018.6 |
| 20260906114558 | 58 | 26 | 3.0 | 4.0 | 0.00 | 0.01 | 0.01 | 98 | 1018.5 |
| 20260906114049 | 58 | 20 | 3.0 | 4.0 | 0.00 | 0.01 | 0.01 | 98 | 1018.5 |
| 20260906113548 | 58 | 34 | 2.0 | 4.0 | 0.00 | 0.01 | 0.01 | 98 | 1018.4 |
| 20260906113055 | 57 | 24 | 2.0 | 3.0 | 0.00 | 0.01 | 0.01 | 98 | 1018.4 |
| 20260906112547 | 58 | 27 | 1.0 | 4.0 | 0.00 | 0.01 | 0.01 | 97 | 1018.3 |
| 20260906112050 | 58 | 16 | 2.0 | 4.0 | 0.00 | 0.01 | 0.01 | 98 | 1018.2 |
| 20260906111547 | 58 | 40 | 3.0 | 5.0 | 0.00 | 0.01 | 0.01 | 97 | 1018.1 |
| 20260906111047 | 58 | 13 | 2.0 | 5.0 | 0.01 | 0.01 | 0.01 | 97 | 1018.1 |
| 20260906110547 | 57 | 15 | 2.0 | 4.0 | 0.01 | 0.01 | 0.01 | 97 | 1018.0 |
| 20260906110045 | 58 | 22 | 2.0 | 5.0 | 0.01 | 0.01 | 0.01 | 97 | 1018.0 |
| 20260906105546 | 58 | 20 | 3.0 | 5.0 | 0.01 | 0.01 | 0.01 | 97 | 1017.8 |
| 20260906105044 | 58 | 18 | 2.0 | 4.0 | 0.01 | 0.01 | 0.01 | 97 | 1017.9 |
| 20260906104545 | 58 | 14 | 2.0 | 4.0 | 0.01 | 0.01 | 0.01 | 97 | 1017.9 |
| 20260906104046 | 58 | 23 | 2.0 | 4.0 | 0.01 | 0.01 | 0.01 | 97 | 1017.8 |
| 20260906103543 | 58 | 23 | 2.0 | 4.0 | 0.01 | 0.01 | 0.01 | 97 | 1017.8 |
| 20260906103044 | 58 | 15 | 2.0 | 4.0 | 0.01 | 0.01 | 0.01 | 97 | 1017.9 |
| 20260906102544 | 58 | 44 | 2.0 | 5.0 | 0.01 | 0.01 | 0.01 | 97 | 1017.8 |
| 20260906102044 | 58 | 23 | 2.0 | 6.0 | 0.01 | 0.01 | 0.01 | 97 | 1017.9 |
| 20260906101543 | 58 | 21 | 3.0 | 6.0 | 0.01 | 0.01 | 0.01 | 97 | 1017.9 |
| 20260906101047 | 58 | 32 | 2.0 | 4.0 | 0.00 | 0.00 | 0.00 | 97 | 1018.0 |
| 20260906100542 | 58 | 27 | 1.0 | 4.0 | 0.00 | 0.00 | 0.00 | 97 | 1018.1 |
| 20260906100042 | 58 | 2 | 2.0 | 4.0 | 0.00 | 0.00 | 0.00 | 97 | 1018.0 |
| 20260906095542 | 58 | 23 | 2.0 | 4.0 | 0.00 | 0.00 | 0.00 | 97 | 1017.9 |
| 20260906095043 | 58 | 21 | 1.0 | 2.0 | 0.00 | 0.00 | 0.00 | 97 | 1018.1 |
| 20260906094541 | 58 | 25 | 0.0 | 1.0 | 0.00 | 0.00 | 0.00 | 97 | 1018.3 |
| 20260906094040 | 58 | 25 | 0.0 | 2.0 | 0.00 | 0.00 | 0.00 | 97 | 1018.1 |
| 20260906093539 | 58 | 25 | 0.0 | 2.0 | 0.00 | 0.00 | 0.00 | 97 | 1018.0 |
| 20260906093038 | 58 | 25 | 0.0 | 2.0 | 0.00 | 0.00 | 0.00 | 97 | 1017.9 |
| 20260906092543 | 58 | 25 | 0.0 | 2.0 | 0.00 | 0.00 | 0.00 | 97 | 1017.9 |
| 20260906092037 | 58 | 25 | 0.0 | 2.0 | 0.00 | 0.00 | 0.00 | 97 | 1017.8 |
| 20260906091537 | 59 | 25 | 1.0 | 3.0 | 0.00 | 0.00 | 0.00 | 97 | 1017.8 |
| 20260906091037 | 59 | 25 | 1.0 | 3.0 | 0.00 | 0.00 | 0.00 | 97 | 1017.6 |
| 20260906090535 | 58 | 24 | 1.0 | 2.0 | 0.00 | 0.00 | 0.00 | 97 | 1017.6 |
| 20260906090034 | 59 | 24 | 1.0 | 3.0 | 0.00 | 0.00 | 0.00 | 97 | 1017.6 |
| 20260906085535 | 59 | 24 | 1.0 | 3.0 | 0.00 | 0.00 | 0.00 | 97 | 1017.6 |
| 20260906085034 | 59 | 27 | 1.0 | 3.0 | 0.00 | 0.00 | 0.00 | 97 | 1017.7 |
| 20260906084534 | 59 | 27 | 1.0 | 3.0 | 0.00 | 0.00 | 0.00 | 97 | 1017.7 |
| 20260906084037 | 59 | 27 | 0.0 | 2.0 | 0.00 | 0.00 | 0.00 | 97 | 1017.8 |
| 20260906083533 | 59 | 27 | 1.0 | 2.0 | 0.00 | 0.00 | 0.00 | 97 | 1017.7 |
| 20260906083033 | 59 | 27 | 0.0 | 2.0 | 0.00 | 0.00 | 0.00 | 97 | 1017.8 |
| 20260906082532 | 59 | 27 | 0.0 | 2.0 | 0.00 | 0.00 | 0.00 | 97 | 1017.7 |
| 20260906082033 | 59 | 27 | 0.0 | 1.0 | 0.00 | 0.00 | 0.00 | 97 | 1017.6 |
| 20260906081542 | 59 | 27 | 0.0 | 2.0 | 0.00 | 0.00 | 0.00 | 97 | 1017.6 |
| 20260906081031 | 59 | 27 | 0.0 | 2.0 | 0.00 | 0.00 | 0.00 | 97 | 1017.7 |
| 20260906080532 | 59 | 27 | 0.0 | 1.0 | 0.00 | 0.00 | 0.00 | 97 | 1017.6 |
| 20260906080032 | 59 | 27 | 0.0 | 2.0 | 0.00 | 0.00 | 0.00 | 97 | 1017.6 |
| 20260906075533 | 59 | 27 | 1.0 | 2.0 | 0.00 | 0.00 | 0.00 | 97 | 1017.5 |
| 20260906075031 | 59 | 27 | 0.0 | 1.0 | 0.00 | 0.00 | 0.00 | 97 | 1017.5 |
| 20260906074530 | 59 | 27 | 0.0 | 1.0 | 0.00 | 0.00 | 0.00 | 97 | 1017.5 |
| 20260906074029 | 59 | 27 | 0.0 | 1.0 | 0.00 | 0.00 | 0.00 | 97 | 1017.7 |
| 20260906073529 | 59 | 27 | 0.0 | 1.0 | 0.00 | 0.00 | 0.00 | 97 | 1017.8 |
| 20260906073028 | 59 | 27 | 0.0 | 1.0 | 0.00 | 0.00 | 0.00 | 97 | 1017.8 |
| 20260906072528 | 59 | 27 | 0.0 | 2.0 | 0.00 | 0.00 | 0.00 | 97 | 1017.7 |
| 20260906072028 | 60 | 27 | 0.0 | 2.0 | 0.00 | 0.00 | 0.00 | 97 | 1017.7 |
| 20260906071526 | 60 | 27 | 0.0 | 2.0 | 0.00 | 0.00 | 0.00 | 97 | 1017.7 |
| 20260906071029 | 60 | 29 | 1.0 | 3.0 | 0.00 | 0.00 | 0.00 | 97 | 1017.6 |
| 20260906070525 | 60 | 14 | 1.0 | 3.0 | 0.00 | 0.00 | 0.00 | 97 | 1017.6 |
| 20260906070025 | 60 | 80 | 1.0 | 2.0 | 0.00 | 0.00 | 0.00 | 97 | 1017.6 |
| 20260906065525 | 60 | 80 | 0.0 | 2.0 | 0.00 | 0.00 | 0.00 | 97 | 1017.6 |
| 20260906065025 | 60 | 80 | 0.0 | 1.0 | 0.00 | 0.00 | 0.00 | 97 | 1017.5 |
| 20260906064524 | 60 | 80 | 0.0 | 1.0 | 0.00 | 0.00 | 0.00 | 97 | 1017.6 |
| 20260906064024 | 60 | 80 | 0.0 | 1.0 | 0.00 | 0.00 | 0.00 | 97 | 1017.6 |
| 20260906063525 | 60 | 80 | 0.0 | 1.0 | 0.00 | 0.00 | 0.00 | 97 | 1017.5 |
| 20260906063023 | 60 | 80 | 0.0 | 2.0 | 0.00 | 0.00 | 0.00 | 97 | 1017.5 |
| 20260906062522 | 60 | 80 | 0.0 | 2.0 | 0.00 | 0.00 | 0.00 | 97 | 1017.5 |
| 20260906062023 | 60 | 80 | 0.0 | 1.0 | 0.00 | 0.00 | 0.00 | 97 | 1017.5 |
| 20260906061521 | 61 | 80 | 0.0 | 0.0 | 0.00 | 0.00 | 0.00 | 97 | 1017.3 |
| 20260906061020 | 61 | 80 | 0.0 | 1.0 | 0.00 | 0.00 | 0.00 | 97 | 1017.4 |
| 20260906060520 | 61 | 80 | 0.0 | 0.0 | 0.00 | 0.00 | 0.00 | 97 | 1017.4 |
| 20260906060026 | 61 | 80 | 0.0 | 0.0 | 0.00 | 0.00 | 0.00 | 97 | 1017.3 |
| 20260906055518 | 61 | 80 | 0.0 | 0.0 | 0.00 | 0.00 | 0.00 | 97 | 1017.2 |
| 20260906055018 | 61 | 80 | 0.0 | 1.0 | 0.00 | 0.00 | 0.00 | 96 | 1017.2 |
| 20260906054517 | 61 | 80 | 0.0 | 1.0 | 0.00 | 0.00 | 0.00 | 96 | 1017.2 |
| 20260906054016 | 61 | 80 | 0.0 | 1.0 | 0.00 | 0.00 | 0.00 | 96 | 1017.1 |
| 20260906053516 | 61 | 80 | 0.0 | 1.0 | 0.00 | 0.00 | 0.00 | 96 | 1017.2 |
| 20260906053021 | 61 | 80 | 0.0 | 1.0 | 0.00 | 0.00 | 0.00 | 96 | 1017.2 |
| 20260906052515 | 61 | 80 | 0.0 | 1.0 | 0.00 | 0.00 | 0.00 | 96 | 1017.2 |
| 20260906052015 | 61 | 80 | 0.0 | 1.0 | 0.00 | 0.00 | 0.00 | 96 | 1017.1 |
| 20260906051516 | 61 | 80 | 0.0 | 1.0 | 0.00 | 0.00 | 0.00 | 96 | 1017.0 |
| 20260906051013 | 62 | 80 | 0.0 | 1.0 | 0.00 | 0.00 | 0.00 | 96 | 1017.0 |
| 20260906050513 | 62 | 80 | 0.0 | 1.0 | 0.00 | 0.00 | 0.00 | 96 | 1016.9 |
| 20260906050028 | 62 | 80 | 0.0 | 1.0 | 0.00 | 0.00 | 0.00 | 95 | 1017.0 |
| 20260906045510 | 62 | 80 | 0.0 | 1.0 | 0.00 | 0.00 | 0.00 | 95 | 1016.8 |
| 20260906045009 | 62 | 80 | 0.0 | 1.0 | 0.00 | 0.00 | 0.00 | 95 | 1016.6 |
| 20260906044512 | 62 | 80 | 0.0 | 1.0 | 0.00 | 0.00 | 0.00 | 95 | 1016.6 |
| 20260906044011 | 62 | 80 | 0.0 | 1.0 | 0.00 | 0.00 | 0.00 | 95 | 1016.6 |
| 20260906043506 | 63 | 80 | 0.0 | 1.0 | 0.00 | 0.00 | 0.00 | 95 | 1016.7 |
| 20260906043006 | 63 | 80 | 0.0 | 1.0 | 0.00 | 0.00 | 0.00 | 94 | 1016.7 |
| 20260906042507 | 63 | 80 | 0.0 | 1.0 | 0.00 | 0.00 | 0.00 | 94 | 1016.6 |
| 20260906042004 | 63 | 80 | 0.0 | 1.0 | 0.00 | 0.00 | 0.00 | 94 | 1016.6 |
| 20260906041505 | 63 | 80 | 0.0 | 1.0 | 0.00 | 0.00 | 0.00 | 94 | 1016.4 |
| 20260906041004 | 63 | 80 | 1.0 | 1.0 | 0.00 | 0.00 | 0.00 | 94 | 1016.4 |
| 20260906040503 | 63 | 80 | 0.0 | 1.0 | 0.00 | 0.00 | 0.00 | 94 | 1016.4 |
| 20260906040004 | 63 | 80 | 0.0 | 1.0 | 0.00 | 0.00 | 0.00 | 94 | 1016.4 |
| 20260906035502 | 63 | 80 | 0.0 | 1.0 | 0.00 | 0.00 | 0.00 | 94 | 1016.5 |
| 20260906035002 | 63 | 80 | 0.0 | 1.0 | 0.00 | 0.00 | 0.00 | 94 | 1016.5 |
| 20260906034502 | 63 | 80 | 0.0 | 1.0 | 0.00 | 0.00 | 0.00 | 94 | 1016.5 |
| 20260906034002 | 63 | 80 | 0.0 | 1.0 | 0.00 | 0.00 | 0.00 | 93 | 1016.4 |
| 20260906033502 | 63 | 80 | 0.0 | 1.0 | 0.00 | 0.00 | 0.00 | 93 | 1016.3 |
| 20260906033100 | 64 | 80 | 0.0 | 1.0 | 0.00 | 0.00 | 0.00 | 93 | 1016.3 |
| 20260906032559 | 64 | 80 | 0.0 | 1.0 | 0.00 | 0.00 | 0.00 | 92 | 1016.3 |
| 20260906032059 | 64 | 80 | 0.0 | 1.0 | 0.00 | 0.00 | 0.00 | 92 | 1016.4 |
| 20260906031604 | 64 | 80 | 0.0 | 1.0 | 0.00 | 0.00 | 0.00 | 92 | 1016.3 |
| 20260906031058 | 64 | 80 | 0.0 | 1.0 | 0.00 | 0.00 | 0.00 | 92 | 1016.3 |
| 20260906030557 | 64 | 80 | 0.0 | 1.0 | 0.00 | 0.00 | 0.00 | 92 | 1016.4 |
| 20260906030057 | 65 | 80 | 0.0 | 2.0 | 0.00 | 0.00 | 0.00 | 91 | 1016.3 |
| 20260906025555 | 65 | 80 | 0.0 | 3.0 | 0.00 | 0.00 | 0.00 | 91 | 1016.3 |
| 20260906025055 | 65 | 81 | 1.0 | 3.0 | 0.00 | 0.00 | 0.00 | 91 | 1016.2 |
| 20260906024555 | 65 | 76 | 0.0 | 2.0 | 0.00 | 0.00 | 0.00 | 91 | 1016.3 |
| 20260906024054 | 65 | 76 | 1.0 | 3.0 | 0.00 | 0.00 | 0.00 | 90 | 1016.2 |
| 20260906023554 | 65 | 76 | 1.0 | 3.0 | 0.00 | 0.00 | 0.00 | 90 | 1016.2 |
| 20260906023054 | 65 | 76 | 1.0 | 3.0 | 0.00 | 0.00 | 0.00 | 90 | 1016.2 |
| 20260906022553 | 65 | 76 | 1.0 | 3.0 | 0.00 | 0.00 | 0.00 | 89 | 1016.2 |
| 20260906022054 | 66 | 76 | 1.0 | 3.0 | 0.00 | 0.00 | 0.00 | 89 | 1016.2 |
| 20260906021551 | 66 | 76 | 1.0 | 3.0 | 0.00 | 0.00 | 0.00 | 88 | 1016.1 |
| 20260906021050 | 66 | 77 | 1.0 | 4.0 | 0.00 | 0.00 | 0.00 | 88 | 1016.2 |
| 20260906020549 | 66 | 75 | 2.0 | 4.0 | 0.00 | 0.00 | 0.00 | 88 | 1016.0 |
| 20260906020057 | 66 | 70 | 2.0 | 4.0 | 0.00 | 0.00 | 0.00 | 88 | 1016.1 |
| 20260906015548 | 66 | 94 | 2.0 | 4.0 | 0.00 | 0.00 | 0.00 | 87 | 1016.0 |
| 20260906015048 | 66 | 75 | 2.0 | 4.0 | 0.00 | 0.00 | 0.00 | 87 | 1016.0 |
| 20260906014551 | 66 | 80 | 2.0 | 5.0 | 0.00 | 0.00 | 0.00 | 87 | 1016.0 |
| 20260906014047 | 67 | 77 | 2.0 | 5.0 | 0.00 | 0.00 | 0.00 | 87 | 1015.9 |
| 20260906013547 | 67 | 73 | 1.0 | 4.0 | 0.00 | 0.00 | 0.00 | 87 | 1015.9 |
| 20260906013047 | 67 | 79 | 1.0 | 4.0 | 0.00 | 0.00 | 0.00 | 86 | 1015.8 |
| 20260906012547 | 67 | 80 | 1.0 | 4.0 | 0.00 | 0.00 | 0.00 | 86 | 1015.7 |
| 20260906012047 | 67 | 74 | 1.0 | 3.0 | 0.00 | 0.00 | 0.00 | 86 | 1015.6 |
| 20260906011550 | 67 | 68 | 2.0 | 3.0 | 0.00 | 0.00 | 0.00 | 86 | 1015.6 |
| 20260906011046 | 67 | 88 | 1.0 | 3.0 | 0.00 | 0.00 | 0.00 | 86 | 1015.6 |
| 20260906010547 | 67 | 86 | 1.0 | 3.0 | 0.00 | 0.00 | 0.00 | 86 | 1015.6 |
| 20260906010046 | 68 | 84 | 0.0 | 4.0 | 0.00 | 0.00 | 0.00 | 86 | 1015.6 |
| 20260906005545 | 68 | 84 | 1.0 | 4.0 | 0.00 | 0.00 | 0.00 | 85 | 1015.6 |
| 20260906005047 | 68 | 58 | 1.0 | 3.0 | 0.00 | 0.00 | 0.00 | 86 | 1015.5 |
| 20260906004545 | 68 | 70 | 0.0 | 3.0 | 0.00 | 0.00 | 0.00 | 86 | 1015.5 |
| 20260906004044 | 68 | 70 | 0.0 | 2.0 | 0.00 | 0.00 | 0.00 | 86 | 1015.5 |
| 20260906003544 | 69 | 70 | 0.0 | 2.0 | 0.00 | 0.00 | 0.00 | 85 | 1015.5 |
| 20260906003045 | 69 | 70 | 0.0 | 2.0 | 0.00 | 0.00 | 0.00 | 85 | 1015.6 |
| 20260906002545 | 69 | 70 | 0.0 | 3.0 | 0.00 | 0.00 | 0.00 | 84 | 1015.6 |
| 20260906002044 | 70 | 70 | 1.0 | 3.0 | 0.00 | 0.00 | 0.00 | 84 | 1015.6 |
| 20260906001544 | 70 | 70 | 1.0 | 5.0 | 0.00 | 0.00 | 0.00 | 84 | 1015.6 |
| 20260906001043 | 70 | 75 | 1.0 | 5.0 | 0.00 | 0.00 | 0.00 | 84 | 1015.5 |
| 20260906000543 | 70 | 65 | 2.0 | 4.0 | 0.00 | 0.00 | 0.00 | 84 | 1015.4 |
| 20260906000043 | 70 | 81 | 2.0 | 3.0 | 0.00 | 0.00 | 0.00 | 85 | 1015.4 |
| 20260905235543 | 71 | 69 | 1.0 | 2.0 | 0.00 | 0.00 | 0.00 | 85 | 1015.6 |
| 20260905235043 | 71 | 59 | 1.0 | 4.0 | 0.00 | 0.00 | 0.00 | 85 | 1015.5 |
| 20260905234543 | 71 | 71 | 2.0 | 5.0 | 0.00 | 0.00 | 0.00 | 84 | 1015.5 |
| 20260905234042 | 72 | 86 | 2.0 | 5.0 | 0.00 | 0.00 | 0.00 | 84 | 1015.4 |
| 20260905233542 | 72 | 34 | 2.0 | 6.0 | 0.00 | 0.00 | 0.00 | 84 | 1015.5 |
| 20260905233044 | 72 | 72 | 2.0 | 6.0 | 0.00 | 0.00 | 0.00 | 84 | 1015.5 |
| 20260905232542 | 73 | 84 | 3.0 | 6.0 | 0.00 | 0.00 | 0.00 | 83 | 1015.5 |
| 20260905232041 | 73 | 82 | 2.0 | 5.0 | 0.00 | 0.00 | 0.00 | 84 | 1015.5 |
| 20260905231542 | 73 | 61 | 2.0 | 5.0 | 0.00 | 0.00 | 0.00 | 83 | 1015.6 |
| 20260905231040 | 73 | 88 | 1.0 | 8.0 | 0.00 | 0.00 | 0.00 | 85 | 1015.6 |
| 20260905230540 | 73 | 29 | 2.0 | 8.0 | 0.00 | 0.00 | 0.00 | 84 | 1015.6 |
| 20260905230048 | 73 | 349 | 2.0 | 6.0 | 0.00 | 0.00 | 0.00 | 83 | 1015.7 |
| 20260905225540 | 73 | 8 | 1.0 | 4.0 | 0.00 | 0.00 | 0.00 | 83 | 1015.7 |
| 20260905225040 | 73 | 65 | 1.0 | 6.0 | 0.00 | 0.00 | 0.00 | 83 | 1015.6 |
| 20260905224557 | 73 | 70 | 3.0 | 6.0 | 0.00 | 0.00 | 0.00 | 84 | 1015.6 |
| 20260905224040 | 73 | 39 | 2.0 | 7.0 | 0.00 | 0.00 | 0.00 | 84 | 1015.6 |
| 20260905223539 | 73 | 47 | 2.0 | 9.0 | 0.00 | 0.00 | 0.00 | 84 | 1015.4 |
| 20260905223039 | 74 | 8 | 5.0 | 9.0 | 0.00 | 0.00 | 0.00 | 83 | 1015.3 |
| 20260905222539 | 74 | 36 | 3.0 | 8.0 | 0.00 | 0.00 | 0.00 | 84 | 1015.2 |
| 20260905222038 | 74 | 18 | 4.0 | 8.0 | 0.00 | 0.00 | 0.00 | 83 | 1015.1 |
| 20260905221549 | 74 | 36 | 3.0 | 11.0 | 0.00 | 0.00 | 0.00 | 83 | 1015.0 |
| 20260905221037 | 74 | 13 | 4.0 | 11.0 | 0.00 | 0.00 | 0.00 | 83 | 1015.0 |
| 20260905220536 | 74 | 16 | 4.0 | 9.0 | 0.00 | 0.00 | 0.00 | 84 | 1015.1 |
| 20260905220040 | 74 | 29 | 4.0 | 7.0 | 0.00 | 0.00 | 0.00 | 84 | 1015.1 |
| 20260905215535 | 74 | 348 | 2.0 | 8.0 | 0.00 | 0.00 | 0.00 | 85 | 1015.1 |
| 20260905215033 | 74 | 20 | 4.0 | 8.0 | 0.00 | 0.00 | 0.00 | 84 | 1015.1 |
| 20260905214532 | 73 | 354 | 4.0 | 8.0 | 0.00 | 0.00 | 0.00 | 85 | 1015.2 |
| 20260905214031 | 73 | 34 | 2.0 | 6.0 | 0.00 | 0.00 | 0.00 | 86 | 1015.2 |
| 20260905213533 | 73 | 12 | 3.0 | 6.0 | 0.00 | 0.00 | 0.00 | 87 | 1015.3 |
| 20260905213029 | 72 | 26 | 1.0 | 4.0 | 0.00 | 0.00 | 0.00 | 88 | 1015.3 |
| 20260905212532 | 72 | 31 | 2.0 | 4.0 | 0.00 | 0.00 | 0.00 | 88 | 1015.3 |
| 20260905212029 | 72 | 20 | 0.0 | 3.0 | 0.00 | 0.00 | 0.00 | 89 | 1015.4 |
| 20260905211528 | 72 | 17 | 0.0 | 3.0 | 0.00 | 0.00 | 0.00 | 89 | 1015.4 |
| 20260905211028 | 72 | 12 | 0.0 | 2.0 | 0.00 | 0.00 | 0.00 | 88 | 1015.4 |
| 20260905210529 | 72 | 352 | 0.0 | 2.0 | 0.00 | 0.00 | 0.00 | 88 | 1015.5 |
| 20260905210029 | 72 | 350 | 0.0 | 3.0 | 0.00 | 0.00 | 0.00 | 87 | 1015.5 |
| 20260905205528 | 72 | 346 | 0.0 | 3.0 | 0.00 | 0.00 | 0.00 | 88 | 1015.5 |
| 20260905205028 | 72 | 20 | 1.0 | 2.0 | 0.00 | 0.00 | 0.00 | 88 | 1015.6 |
| 20260905204528 | 72 | 34 | 0.0 | 4.0 | 0.00 | 0.00 | 0.00 | 88 | 1015.5 |
| 20260905204029 | 72 | 1 | 1.0 | 6.0 | 0.00 | 0.00 | 0.00 | 87 | 1015.6 |
| 20260905203527 | 72 | 40 | 2.0 | 6.0 | 0.00 | 0.00 | 0.00 | 85 | 1015.6 |
| 20260905203036 | 72 | 1 | 2.0 | 5.0 | 0.00 | 0.00 | 0.00 | 85 | 1015.6 |
| 20260905202529 | 73 | 52 | 1.0 | 5.0 | 0.00 | 0.00 | 0.00 | 85 | 1015.6 |
| 20260905202027 | 73 | 20 | 2.0 | 5.0 | 0.00 | 0.00 | 0.00 | 85 | 1015.5 |
| 20260905201527 | 73 | 44 | 2.0 | 7.0 | 0.00 | 0.00 | 0.00 | 84 | 1015.5 |
| 20260905201026 | 72 | 79 | 2.0 | 7.0 | 0.00 | 0.00 | 0.00 | 86 | 1015.5 |
| 20260905200528 | 72 | 337 | 3.0 | 6.0 | 0.00 | 0.00 | 0.00 | 85 | 1015.5 |
| 20260905200026 | 72 | 27 | 2.0 | 7.0 | 0.00 | 0.00 | 0.00 | 86 | 1015.5 |
| 20260905195524 | 72 | 17 | 4.0 | 7.0 | 0.00 | 0.00 | 0.00 | 86 | 1015.6 |
| 20260905195027 | 72 | 30 | 1.0 | 6.0 | 0.00 | 0.00 | 0.00 | 87 | 1015.5 |
| 20260905194525 | 72 | 25 | 3.0 | 8.0 | 0.00 | 0.00 | 0.00 | 86 | 1015.5 |
| 20260905194028 | 72 | 32 | 3.0 | 9.0 | 0.00 | 0.00 | 0.00 | 86 | 1015.5 |
| 20260905193525 | 72 | 324 | 4.0 | 9.0 | 0.00 | 0.00 | 0.00 | 87 | 1015.5 |
| 20260905193027 | 72 | 56 | 4.0 | 9.0 | 0.00 | 0.00 | 0.00 | 86 | 1015.5 |
| 20260905192524 | 72 | 38 | 2.0 | 8.0 | 0.00 | 0.00 | 0.00 | 86 | 1015.4 |
| 20260905192024 | 72 | 30 | 4.0 | 9.0 | 0.00 | 0.00 | 0.00 | 86 | 1015.4 |
| 20260905191524 | 72 | 47 | 3.0 | 9.0 | 0.00 | 0.00 | 0.00 | 86 | 1015.4 |
| 20260905191023 | 72 | 7 | 2.0 | 9.0 | 0.00 | 0.00 | 0.00 | 86 | 1015.4 |
| 20260905190523 | 73 | 29 | 2.0 | 8.0 | 0.00 | 0.00 | 0.00 | 88 | 1015.5 |
| 20260905190021 | 72 | 33 | 5.0 | 8.0 | 0.00 | 0.00 | 0.00 | 87 | 1015.5 |
| 20260905185521 | 72 | 43 | 3.0 | 10.0 | 0.00 | 0.00 | 0.00 | 87 | 1015.4 |
| 20260905185019 | 72 | 28 | 5.0 | 10.0 | 0.00 | 0.00 | 0.00 | 88 | 1015.4 |
| 20260905184518 | 72 | 37 | 5.0 | 10.0 | 0.00 | 0.00 | 0.00 | 88 | 1015.5 |
| 20260905184017 | 71 | 34 | 4.0 | 8.0 | 0.00 | 0.00 | 0.00 | 90 | 1015.4 |
| 20260905183516 | 71 | 25 | 3.0 | 8.0 | 0.00 | 0.00 | 0.00 | 91 | 1015.5 |
| 20260905183017 | 70 | 44 | 3.0 | 7.0 | 0.00 | 0.00 | 0.00 | 91 | 1015.6 |
| 20260905182513 | 70 | 28 | 3.0 | 7.0 | 0.00 | 0.00 | 0.00 | 91 | 1015.6 |
| 20260905182013 | 70 | 69 | 4.0 | 7.0 | 0.00 | 0.00 | 0.00 | 91 | 1015.7 |
| 20260905181513 | 70 | 334 | 4.0 | 8.0 | 0.00 | 0.00 | 0.00 | 91 | 1015.8 |
| 20260905181013 | 70 | 59 | 2.0 | 8.0 | 0.00 | 0.00 | 0.00 | 92 | 1015.8 |
| 20260905180513 | 70 | 30 | 3.0 | 8.0 | 0.00 | 0.00 | 0.00 | 92 | 1015.8 |
| 20260905180011 | 70 | 34 | 4.0 | 7.0 | 0.00 | 0.00 | 0.00 | 92 | 1015.7 |
| 20260905175512 | 70 | 348 | 4.0 | 9.0 | 0.00 | 0.00 | 0.00 | 92 | 1015.7 |
| 20260905175012 | 69 | 5 | 4.0 | 8.0 | 0.00 | 0.00 | 0.00 | 92 | 1015.7 |
| 20260905174511 | 69 | 30 | 2.0 | 7.0 | 0.00 | 0.00 | 0.00 | 93 | 1015.7 |
| 20260905174015 | 69 | 26 | 3.0 | 7.0 | 0.00 | 0.00 | 0.00 | 92 | 1015.6 |
| 20260905173511 | 70 | 28 | 2.0 | 5.0 | 0.00 | 0.00 | 0.00 | 92 | 1015.6 |
| 20260905173015 | 70 | 32 | 0.0 | 4.0 | 0.00 | 0.00 | 0.00 | 93 | 1015.6 |
| 20260905172511 | 69 | 32 | 1.0 | 6.0 | 0.00 | 0.00 | 0.00 | 93 | 1015.6 |
| 20260905172011 | 69 | 23 | 2.0 | 7.0 | 0.00 | 0.00 | 0.00 | 93 | 1015.6 |
| 20260905171518 | 69 | 18 | 2.0 | 7.0 | 0.00 | 0.00 | 0.00 | 93 | 1015.6 |
| 20260905171010 | 69 | 19 | 3.0 | 6.0 | 0.00 | 0.00 | 0.00 | 93 | 1015.7 |
| 20260905170510 | 69 | 34 | 1.0 | 5.0 | 0.00 | 0.00 | 0.00 | 93 | 1015.7 |
| 20260905170011 | 69 | 345 | 1.0 | 8.0 | 0.00 | 0.00 | 0.00 | 93 | 1015.7 |
| 20260905165511 | 69 | 331 | 4.0 | 8.0 | 0.00 | 0.00 | 0.00 | 93 | 1015.8 |
| 20260905165013 | 69 | 36 | 1.0 | 4.0 | 0.00 | 0.00 | 0.00 | 93 | 1015.8 |
| 20260905164509 | 69 | 354 | 1.0 | 2.0 | 0.00 | 0.00 | 0.00 | 93 | 1015.9 |
| 20260905164009 | 69 | 359 | 0.0 | 3.0 | 0.00 | 0.00 | 0.00 | 93 | 1015.9 |
| 20260905163508 | 69 | 359 | 1.0 | 5.0 | 0.00 | 0.00 | 0.00 | 92 | 1016.0 |
| 20260905163008 | 69 | 359 | 2.0 | 5.0 | 0.00 | 0.00 | 0.00 | 93 | 1015.9 |
| 20260905162509 | 69 | 23 | 1.0 | 7.0 | 0.00 | 0.00 | 0.00 | 93 | 1015.8 |
| 20260905162007 | 69 | 50 | 2.0 | 7.0 | 0.00 | 0.00 | 0.00 | 92 | 1015.8 |
| 20260905161508 | 69 | 285 | 0.0 | 2.0 | 0.00 | 0.00 | 0.00 | 93 | 1015.9 |